Murray, KY

4:21 AM CDT on August 23, 2017 (GMT -0500)
Kyle-Oakley

Weather History for KCEY - April, 2013

Change the Weather History Date:

Friday, April 19, 2013

  Actual Average (KPAH) Record (KPAH)
Temperature  
Mean Temperature 42 °F -  
Max Temperature 46 °F 71 °F 88 °F (1971)
Min Temperature 39 °F 50 °F 29 °F (1953)
Degree Days  
Heating Degree Days 22    
Moisture  
Dew Point 33 °F    
Average Humidity 69    
Maximum Humidity 100    
Minimum Humidity 53    
Precipitation  
Precipitation 0.09 in - - ()
Sea Level Pressure  
Sea Level Pressure 29.95 in    
Wind  
Wind Speed 13 mph (West)    
Max Wind Speed 20 mph    
Max Gust Speed 28 mph    
Visibility 10 miles    
Events      
Averages and records for this station are not official NWS values.
T = Trace of Precipitation, MM = Missing Value Source: NWS Daily Summary

Daily Weather History Graph

Daily Weather History Graph

Search for Another Location

Airport or City:

Trip Planner

Search our weather history database for the weather conditions in past years. The results will help you decide how hot, cold, wet, or windy it might be!

Date:

Astronomy

Apr. 19, 2013 Rise Set
Actual Time 6:14 AM CDT 7:31 PM CDT
Civil Twilight 5:47 AM CDT 7:58 PM CDT
Nautical Twilight 5:14 AM CDT 8:30 PM CDT
Astronomical Twilight 4:41 AM CDT 9:04 PM CDT
Moon 1:25 PM CDT (4/19) 2:19 AM CDT (4/19)
Length of Visible Light 14h 11m
Length of Day
13h 17m
First Quarter, 62% of the Moon is Illuminated
Apr 19
First Quarter
Apr 25
Full
May 2
Last Quarter
May 9
New
May 17
First Quarter

Hourly Weather History & Observations

Time (CDT) Temp. Windchill Dew Point Humidity Pressure Visibility Wind Dir Wind Speed Gust Speed Precip Events Conditions
12:15 AM 46.4 °F 40.1 °F 46.4 °F 100% 29.72 in 5.0 mi NW 15.0 mph 26.5 mph 0.03 in   Unknown
12:35 AM 46.4 °F 40.1 °F 44.6 °F 93% 29.77 in 4.0 mi WNW 15.0 mph - 0.06 in   Overcast
12:55 AM 44.6 °F 37.2 °F 44.6 °F 100% 29.74 in 5.0 mi NW 17.3 mph 27.6 mph 0.08 in   Overcast
1:15 AM 44.6 °F 38.1 °F 42.8 °F 93% 29.77 in 10.0 mi WNW 13.8 mph 19.6 mph 0.01 in   Unknown
1:35 AM 44.6 °F 37.8 °F 41.0 °F 87% 29.78 in 10.0 mi NW 15.0 mph 23.0 mph 0.01 in   Overcast
1:55 AM 44.6 °F 37.4 °F 39.2 °F 81% 29.78 in 10.0 mi NW 16.1 mph 21.9 mph 0.01 in   Overcast
2:15 AM 42.8 °F 35.8 °F 37.4 °F 81% 29.77 in 10.0 mi NW 13.8 mph 20.7 mph N/A   Overcast
2:35 AM 42.8 °F 36.2 °F 39.2 °F 87% 29.79 in 10.0 mi WNW 12.7 mph - N/A   Overcast
2:55 AM 42.8 °F 35.8 °F 37.4 °F 81% 29.80 in 10.0 mi WNW 13.8 mph 19.6 mph N/A   Overcast
3:15 AM 42.8 °F 34.5 °F 35.6 °F 76% 29.80 in 10.0 mi WNW 18.4 mph - N/A   Overcast
3:35 AM 42.8 °F 36.2 °F 35.6 °F 76% 29.82 in 10.0 mi West 12.7 mph 18.4 mph N/A   Overcast
3:55 AM 42.8 °F 37.0 °F 35.6 °F 76% 29.82 in 10.0 mi WNW 10.4 mph 18.4 mph N/A   Overcast
4:15 AM 41.0 °F 34.3 °F 35.6 °F 81% 29.83 in 10.0 mi WNW 11.5 mph - N/A   Overcast
4:35 AM 42.8 °F 37.0 °F 33.8 °F 70% 29.83 in 10.0 mi WNW 10.4 mph - N/A   Overcast
4:55 AM 41.0 °F 34.7 °F 35.6 °F 81% 29.83 in 10.0 mi WNW 10.4 mph 18.4 mph N/A   Overcast
5:15 AM 41.0 °F 33.5 °F 33.8 °F 76% 29.84 in 10.0 mi WNW 13.8 mph 18.4 mph N/A   Overcast
5:35 AM 41.0 °F 33.5 °F 32.0 °F 70% 29.85 in 10.0 mi WNW 13.8 mph 21.9 mph N/A   Overcast
5:55 AM 41.0 °F 33.5 °F 32.0 °F 70% 29.86 in 10.0 mi WNW 13.8 mph - N/A   Overcast
6:15 AM 41.0 °F 35.2 °F 32.0 °F 70% 29.87 in 10.0 mi WNW 9.2 mph 19.6 mph N/A   Overcast
6:35 AM 41.0 °F 34.3 °F 32.0 °F 70% 29.89 in 10.0 mi WNW 11.5 mph 16.1 mph N/A   Overcast
6:55 AM 41.0 °F 35.2 °F 32.0 °F 70% 29.91 in 10.0 mi West 9.2 mph 20.7 mph N/A   Overcast
7:15 AM 41.0 °F 34.7 °F 32.0 °F 70% 29.92 in 10.0 mi West 10.4 mph - N/A   Overcast
7:35 AM 41.0 °F 35.8 °F 32.0 °F 70% 29.92 in 10.0 mi West 8.1 mph - N/A   Overcast
7:55 AM 41.0 °F 33.9 °F 32.0 °F 70% 29.92 in 10.0 mi West 12.7 mph - N/A   Overcast
8:15 AM 41.0 °F 33.9 °F 32.0 °F 70% 29.92 in 10.0 mi West 12.7 mph 19.6 mph N/A   Overcast
8:35 AM 41.0 °F 34.7 °F 32.0 °F 70% 29.93 in 10.0 mi West 10.4 mph 19.6 mph N/A   Overcast
8:55 AM 41.0 °F 33.1 °F 32.0 °F 70% 29.93 in 10.0 mi West 15.0 mph 19.6 mph N/A   Overcast
9:15 AM 42.8 °F 35.8 °F 32.0 °F 66% 29.93 in 10.0 mi West 13.8 mph 18.4 mph N/A   Overcast
9:35 AM 42.8 °F 34.8 °F 30.2 °F 61% 29.94 in 10.0 mi West 17.3 mph 23.0 mph N/A   Overcast
9:55 AM 44.6 °F 37.4 °F 30.2 °F 57% 29.94 in 10.0 mi West 16.1 mph 25.3 mph N/A   Overcast
10:15 AM 44.6 °F 36.6 °F 30.2 °F 57% 29.95 in 10.0 mi West 19.6 mph 24.2 mph N/A   Overcast
10:35 AM 42.8 °F 35.1 °F 32.0 °F 66% 29.96 in 10.0 mi West 16.1 mph - N/A   Overcast
10:55 AM 42.8 °F 34.5 °F 32.0 °F 66% 29.97 in 10.0 mi West 18.4 mph 25.3 mph N/A   Overcast
11:15 AM 42.8 °F 36.2 °F 30.2 °F 61% 29.98 in 10.0 mi West 12.7 mph 21.9 mph N/A   Overcast
11:35 AM 42.8 °F 35.4 °F 30.2 °F 61% 29.98 in 10.0 mi West 15.0 mph 23.0 mph N/A   Overcast
11:55 AM 42.8 °F 34.8 °F 30.2 °F 61% 29.99 in 10.0 mi West 17.3 mph 21.9 mph N/A   Overcast
12:15 PM 44.6 °F 37.8 °F 32.0 °F 61% 29.99 in 10.0 mi West 15.0 mph 19.6 mph N/A   Overcast
12:35 PM 42.8 °F 34.8 °F 30.2 °F 61% 29.99 in 10.0 mi West 17.3 mph 23.0 mph N/A   Overcast
12:55 PM 42.8 °F 36.6 °F 32.0 °F 66% 29.98 in 10.0 mi West 11.5 mph 16.1 mph N/A   Overcast
1:15 PM 44.6 °F 38.4 °F 32.0 °F 61% 29.98 in 10.0 mi West 12.7 mph - N/A   Overcast
1:35 PM 44.6 °F 37.4 °F 30.2 °F 57% 29.98 in 10.0 mi West 16.1 mph 21.9 mph N/A   Overcast
1:55 PM 44.6 °F 37.2 °F 32.0 °F 61% 29.98 in 10.0 mi WSW 17.3 mph 21.9 mph N/A   Overcast
2:15 PM 44.6 °F 38.1 °F 32.0 °F 61% 29.99 in 10.0 mi WSW 13.8 mph 19.6 mph N/A   Overcast
2:35 PM 44.6 °F 37.8 °F 32.0 °F 61% 29.99 in 10.0 mi West 15.0 mph 19.6 mph N/A   Overcast
2:55 PM 44.6 °F 38.8 °F 32.0 °F 61% 29.99 in 10.0 mi West 11.5 mph 24.2 mph N/A   Overcast
3:15 PM 44.6 °F 37.8 °F 30.2 °F 57% 29.99 in 10.0 mi West 15.0 mph 25.3 mph N/A   Overcast
3:35 PM 44.6 °F 37.8 °F 30.2 °F 57% 30.00 in 10.0 mi West 15.0 mph 20.7 mph N/A   Overcast
3:55 PM 44.6 °F 36.6 °F 32.0 °F 61% 30.00 in 10.0 mi West 19.6 mph 23.0 mph N/A   Overcast
4:15 PM 44.6 °F 38.1 °F 32.0 °F 61% 30.01 in 10.0 mi WSW 13.8 mph 24.2 mph N/A   Overcast
4:35 PM 46.4 °F 40.4 °F 32.0 °F 57% 30.01 in 10.0 mi West 13.8 mph 23.0 mph N/A   Overcast
4:55 PM 46.4 °F 39.8 °F 32.0 °F 57% 30.01 in 10.0 mi West 16.1 mph 21.9 mph N/A   Overcast
5:15 PM 46.4 °F 40.1 °F 32.0 °F 57% 30.02 in 10.0 mi WSW 15.0 mph 20.7 mph N/A   Mostly Cloudy
5:35 PM 46.4 °F 41.1 °F 32.0 °F 57% 30.02 in 10.0 mi West 11.5 mph 24.2 mph N/A   Mostly Cloudy
5:55 PM 46.4 °F 39.8 °F 30.2 °F 53% 30.02 in 10.0 mi West 16.1 mph 21.9 mph N/A   Mostly Cloudy
6:15 PM 46.4 °F 41.1 °F 32.0 °F 57% 30.03 in 10.0 mi West 11.5 mph - N/A   Partly Cloudy
6:35 PM 46.4 °F 41.9 °F 30.2 °F 53% 30.02 in 10.0 mi WSW 9.2 mph 17.3 mph N/A   Clear
6:55 PM 46.4 °F 42.9 °F 32.0 °F 57% 30.02 in 10.0 mi WSW 6.9 mph - N/A   Clear
7:15 PM 44.6 °F 40.7 °F 32.0 °F 61% 30.03 in 10.0 mi SW 6.9 mph - N/A   Clear
7:35 PM 42.8 °F 40.1 °F 32.0 °F 66% 30.04 in 10.0 mi SSW 4.6 mph - N/A   Clear
7:55 PM 41.0 °F 39.0 °F 32.0 °F 70% 30.05 in 10.0 mi South 3.5 mph - N/A   Clear
8:15 PM 41.0 °F 38.0 °F 32.0 °F 70% 30.05 in 10.0 mi South 4.6 mph - N/A   Clear
8:35 PM 41.0 °F 36.4 °F 32.0 °F 70% 30.06 in 10.0 mi South 6.9 mph - N/A   Clear
8:55 PM 41.0 °F 36.4 °F 32.0 °F 70% 30.06 in 10.0 mi South 6.9 mph - N/A   Mostly Cloudy
9:15 PM 41.0 °F 37.1 °F 32.0 °F 70% 30.07 in 10.0 mi South 5.8 mph - N/A   Overcast
9:35 PM 41.0 °F 37.1 °F 32.0 °F 70% 30.07 in 10.0 mi South 5.8 mph - N/A   Overcast
9:55 PM 41.0 °F 35.8 °F 32.0 °F 70% 30.07 in 10.0 mi South 8.1 mph - N/A   Scattered Clouds
10:15 PM 41.0 °F 37.1 °F 32.0 °F 70% 30.08 in 10.0 mi South 5.8 mph - N/A   Partly Cloudy
10:35 PM 41.0 °F 38.0 °F 32.0 °F 70% 30.08 in 10.0 mi SSW 4.6 mph - N/A   Clear
10:55 PM 39.2 °F 37.0 °F 32.0 °F 75% 30.09 in 10.0 mi West 3.5 mph - N/A   Clear
11:15 PM 39.2 °F 35.9 °F 32.0 °F 75% 30.09 in 10.0 mi SW 4.6 mph - N/A   Clear
11:35 PM 41.0 °F 37.1 °F 32.0 °F 70% 30.10 in 10.0 mi SW 5.8 mph - N/A   Clear
11:55 PM 39.2 °F 34.2 °F 32.0 °F 75% 30.10 in 10.0 mi WSW 6.9 mph - N/A   Clear